Location: Frankfurt+(oder)
(51.7984°N, 12.2168°E)
Time: 20:27:02
(UTC+01:00)

Amateur Radio Satellites - All Passes

Search period start: 17 November 2017 19:57
Search period end: 18 November 2017 19:57
Location: Frankfurt+(oder), 51.7984°N, 12.2168°E

Satellite Date Start Highest point End Downlink Frequencies (MHz)
Time Altitude Azimuth
RS-15 17 Nov 19:59:55 20:12:07 72° 123° (ESE) 20:24:12 29.354- 29.394
STRAND 1 17 Nov 20:00:32 20:05:43 85° 105° (ESE) 20:10:50 437.568
YUBILEINY 17 Nov 20:01:45 20:05:19 13° 294° (WNW) 20:08:53 435.215
AO-73 17 Nov 20:14:22 20:18:21 35° 264° (W) 20:22:17 145.935
HO-68 17 Nov 20:14:45 20:19:25 18° 275° (W) 20:24:06 435.675
DELFI C3 17 Nov 20:15:13 20:18:58 43° 69° (ENE) 20:22:47 145.870
Oscar 11 17 Nov 20:35:56 20:39:46 31° 265° (W) 20:43:38 .
NO-84 17 Nov 20:36:59 20:41:07 55° 6° (N) 20:45:20 435.350 FM
Max Valier Satellite 17 Nov 20:41:19 20:44:54 55° 71° (ENE) 20:48:30 145.860
AAUSAT CUBESAT 2 17 Nov 20:41:35 20:43:27 13° 274° (W) 20:45:18 437.432
EO-88 17 Nov 20:49:54 20:53:24 50° 71° (ENE) 20:56:56 145.990 - 145.960
ZACube-1 17 Nov 20:58:59 21:01:12 14° 273° (W) 21:03:24 437.345
ESTCUBE 1 17 Nov 21:09:31 21:12:17 16° 56° (NE) 21:15:04 437.505/2401.250
FO-29 17 Nov 21:13:04 21:21:01 87° 107° (ESE) 21:28:45 435.910
LO-87 17 Nov 21:28:56 21:31:48 22° 64° (ENE) 21:34:40 145.935 - 145.965
STRAND 1 17 Nov 21:40:42 21:44:18 19° 305° (NW) 21:47:52 437.568
SPROUT 17 Nov 21:45:58 21:46:14 10° 51° (NE) 21:46:31 437.525
DELFI C3 17 Nov 21:50:48 21:53:55 22° 268° (W) 21:57:03 145.870
SO-50 17 Nov 22:07:21 22:09:55 15° 112° (ESE) 22:12:30 436.795
UNISAT 6 17 Nov 22:07:58 22:12:19 69° 103° (ESE) 22:16:34 437.425
RS-15 17 Nov 22:13:12 22:25:21 58° 331° (NNW) 22:37:13 29.354- 29.394
TIGRISAT 17 Nov 22:13:33 22:17:53 72° 103° (ESE) 22:22:07 435.000
NO-84 17 Nov 22:14:27 22:18:44 81° 204° (SSW) 22:23:00 435.350 FM
Max Valier Satellite 17 Nov 22:16:55 22:19:03 15° 270° (W) 22:21:12 145.860
EO-88 17 Nov 22:25:02 22:27:20 16° 270° (W) 22:29:39 145.990 - 145.960
O/OREOS (USA 219) 17 Nov 22:28:53 22:32:52 28° 47° (NE) 22:36:48 437.305
nSIGHT-1 17 Nov 22:32:14 22:34:25 17° 143° (SE) 22:36:38 .
ESTCUBE 1 17 Nov 22:44:02 22:48:30 84° 254° (WSW) 22:53:02 437.505/2401.250
PRISM 17 Nov 22:50:08 22:54:19 69° 103° (ESE) 22:58:28 437.425
EO-79 17 Nov 22:50:52 22:51:19 10° 85° (E) 22:51:47 145.935-145.965
NANOSAT C BR1 17 Nov 22:56:43 22:57:29 10° 85° (E) 22:58:15 145.865
FO-29 17 Nov 22:58:44 23:05:13 30° 307° (NW) 23:11:42 435.910
LO-87 17 Nov 23:01:40 23:05:02 36° 262° (W) 23:08:25 145.935 - 145.965
ISS 17 Nov 23:02:05 23:04:46 23° 147° (SSE) 23:07:27 437.550
POLYITAN 1 17 Nov 23:03:26 23:05:38 14° 88° (E) 23:07:51 437.675
SPROUT 17 Nov 23:17:03 23:21:15 59° 71° (ENE) 23:25:30 437.525
VELOX 1 17 Nov 23:23:18 23:27:34 48° 68° (ENE) 23:31:52 145.980
QB50P2 17 Nov 23:25:28 23:28:56 24° 93° (E) 23:32:23 145.880/145.840
UKube-1 17 Nov 23:39:15 23:41:47 15° 55° (NE) 23:44:18 .
AIST 2D 17 Nov 23:42:46 23:46:18 87° 284° (WNW) 23:49:50 435.315
SO-50 17 Nov 23:45:12 23:49:42 86° 131° (SE) 23:54:16 436.795
UNISAT 6 17 Nov 23:45:38 23:48:34 18° 302° (WNW) 23:51:27 437.425
TIGRISAT 17 Nov 23:51:15 23:54:05 17° 303° (WNW) 23:56:53 435.000
NO-84 17 Nov 23:52:16 23:55:42 23° 225° (SW) 23:59:03 435.350 FM
nSIGHT-1 18 Nov 00:07:03 00:10:13 58° 162° (SSE) 00:13:23 .
O/OREOS (USA 219) 18 Nov 00:08:05 00:12:32 51° 249° (WSW) 00:16:55 437.305
DUCHIFAT 1 18 Nov 00:21:33 00:25:43 60° 101° (ESE) 00:29:49 145.980
DX 1 18 Nov 00:22:06 00:26:18 48° 68° (ENE) 00:30:32 434.975-435.025
EO-79 18 Nov 00:23:35 00:27:49 80° 104° (ESE) 00:32:00 145.935-145.965
ESTCUBE 1 18 Nov 00:24:20 00:26:02 12° 275° (W) 00:27:47 437.505/2401.250
PRISM 18 Nov 00:26:21 00:29:08 18° 302° (WNW) 00:31:54 437.425
50 SAT 18 Nov 00:28:08 00:31:18 53° 72° (ENE) 00:34:30 437.505
RS-15 18 Nov 00:29:06 00:40:43 45° 4° (N) 00:51:53 29.354- 29.394
NANOSAT C BR1 18 Nov 00:29:41 00:33:55 82° 106° (ESE) 00:38:05 145.865
BEESAT 18 Nov 00:36:03 00:37:42 12° 49° (NE) 00:39:20 436.000
ISS 18 Nov 00:37:39 00:40:55 71° 166° (SSE) 00:44:10 437.550
POLYITAN 1 18 Nov 00:37:45 00:41:58 76° 286° (WNW) 00:46:08 437.675
ITUPSAT 1 18 Nov 00:42:20 00:44:27 13° 50° (NE) 00:46:35 437.325
FO-29 18 Nov 00:46:35 00:47:53 10° 330° (NNW) 00:49:11 435.910
SPROUT 18 Nov 00:54:29 00:57:31 19° 270° (W) 01:00:33 437.525
Gurwin Techsat 1B 18 Nov 00:55:01 00:58:43 19° 88° (E) 01:02:25 435.225
VELOX 1 18 Nov 01:00:38 01:04:14 24° 267° (W) 01:07:52 145.980
QB50P2 18 Nov 01:00:54 01:04:53 42° 292° (WNW) 01:08:51 145.880/145.840
Oscar 19 18 Nov 01:02:18 01:06:42 27° 93° (E) 01:11:05 437.125/150
PCSat 18 Nov 01:05:27 01:10:25 38° 115° (ESE) 01:15:24 145.827
UKube-1 18 Nov 01:12:52 01:17:12 87° 254° (WSW) 01:21:34 .
AIST 2D 18 Nov 01:18:21 01:18:53 10° 303° (WNW) 01:19:23 435.315
SO-50 18 Nov 01:26:51 01:30:42 27° 334° (NNW) 01:34:35 436.795
BUGSAT 1 18 Nov 01:30:35 01:34:41 82° 106° (ESE) 01:38:43 437.445
MOZHAYETS 4 18 Nov 01:31:25 01:35:28 32° 64° (ENE) 01:39:31
CUBESAT XI-V 18 Nov 01:34:58 01:36:36 12° 51° (NE) 01:38:14 437.345
M-CUBED/EXP-1 PRIME 18 Nov 01:40:59 01:42:07 11° 92° (E) 01:43:15 437.505
nSIGHT-1 18 Nov 01:43:11 01:46:24 90° 182° (S) 01:49:37 .
AO-7 18 Nov 01:43:22 01:45:55 11° 79° (ENE) 01:48:28 .
DUCHIFAT 1 18 Nov 01:58:01 02:01:00 19° 301° (WNW) 02:03:57 145.980
DX 1 18 Nov 01:59:13 02:02:44 23° 267° (W) 02:06:16 434.975-435.025
EO-79 18 Nov 02:00:32 02:03:02 16° 303° (WNW) 02:05:32 145.935-145.965
50 SAT 18 Nov 02:02:19 02:03:45 12° 270° (W) 02:05:11 437.505
NANOSAT C BR1 18 Nov 02:06:38 02:09:03 15° 304° (WNW) 02:11:28 145.865
BEESAT 18 Nov 02:09:51 02:14:32 58° 69° (ENE) 02:19:14 436.000
ISS 18 Nov 02:14:06 02:17:23 86° 188° (S) 02:20:39 437.550
POLYITAN 1 18 Nov 02:15:21 02:17:01 12° 306° (NW) 02:18:41 437.675
ITUPSAT 1 18 Nov 02:16:40 02:21:25 65° 70° (ENE) 02:26:11 437.325
Gurwin Techsat 1B 18 Nov 02:33:58 02:39:19 79° 288° (WNW) 02:44:39 435.225
Oscar 19 18 Nov 02:41:18 02:46:17 52° 293° (WNW) 02:51:18 437.125/150
RS-15 18 Nov 02:43:37 02:55:43 66° 36° (NE) 03:07:10 29.354- 29.394
ITAMSAT 1 18 Nov 02:46:33 02:49:55 17° 88° (E) 02:53:15 435.822/435.867
PCSat 18 Nov 02:48:28 02:53:44 50° 316° (NW) 02:59:03 145.827
UKube-1 18 Nov 02:52:16 02:53:54 12° 274° (W) 02:55:32 .
BUGSAT 1 18 Nov 03:07:15 03:09:29 14° 304° (WNW) 03:11:41 437.445
MOZHAYETS 4 18 Nov 03:08:19 03:12:34 38° 263° (W) 03:16:51
CUBESAT XI-V 18 Nov 03:08:34 03:13:06 63° 71° (ENE) 03:17:40 437.345
SO-50 18 Nov 03:09:38 03:12:35 17° 358° (N) 03:15:33 436.795
M-CUBED/EXP-1 PRIME 18 Nov 03:12:45 03:17:08 71° 108° (ESE) 03:21:44 437.505
nSIGHT-1 18 Nov 03:19:27 03:22:33 48° 202° (SSW) 03:25:38 .
AO-7 18 Nov 03:32:41 03:40:49 52° 101° (ESE) 03:48:54 .
BEESAT 3 18 Nov 03:43:27 03:46:57 30° 120° (ESE) 03:50:29 437.485
BEESAT 18 Nov 03:48:57 03:52:40 22° 268° (W) 03:56:24 436.000
ISS 18 Nov 03:50:38 03:53:42 38° 206° (SSW) 03:56:45 437.550
KKS-1 18 Nov 03:52:03 03:56:21 48° 68° (ENE) 04:00:42 437.445
ITUPSAT 1 18 Nov 03:56:12 03:59:42 20° 270° (W) 04:03:12 437.325
Gurwin Techsat 1B 18 Nov 04:15:08 04:18:30 17° 308° (NW) 04:21:51 435.225
Oscar 19 18 Nov 04:22:52 04:24:33 12° 313° (NW) 04:26:13 437.125/150
ITAMSAT 1 18 Nov 04:24:48 04:30:04 85° 288° (WNW) 04:35:17 435.822/435.867
STARS 18 Nov 04:27:42 04:31:57 46° 68° (ENE) 04:36:13 437.465
PCSat 18 Nov 04:34:25 04:38:24 20° 341° (NNW) 04:42:23 145.827
BEESAT 2 18 Nov 04:44:59 04:48:43 37° 122° (ESE) 04:52:29 435.950
CUBESAT XI-V 18 Nov 04:47:37 04:50:53 19° 271° (W) 04:54:13 437.345
M-CUBED/EXP-1 PRIME 18 Nov 04:47:54 04:51:08 21° 307° (NW) 04:54:29 437.505
SO-50 18 Nov 04:50:51 04:54:34 23° 22° (NNE) 04:58:17 436.795
nSIGHT-1 18 Nov 04:56:37 04:58:13 13° 220° (SW) 04:59:49 .
RS-15 18 Nov 04:56:41 05:08:07 56° 244° (WSW) 05:18:58 29.354- 29.394
DOVE 4 18 Nov 05:00:57 05:06:08 51° 98° (E) 05:11:06 437.250
AO-85 18 Nov 05:03:40 05:06:54 25° 117° (ESE) 05:10:15 145.980
XW-2B 18 Nov 05:07:25 05:08:34 11° 87° (E) 05:09:43 145.730 - 145.750
YUBILEINY 18 Nov 05:13:29 05:21:25 41° 85° (E) 05:29:26 435.215
BEESAT 3 18 Nov 05:20:30 05:24:22 45° 320° (NW) 05:28:15 437.485
AO-7 18 Nov 05:25:42 05:33:37 50° 303° (WNW) 05:41:32 .
LilacSat-2 18 Nov 05:28:23 05:31:15 20° 92° (E) 05:34:07 437.200
CUTE-I 18 Nov 05:29:18 05:33:14 20° 89° (E) 05:37:10 437.470
KKS-1 18 Nov 05:29:30 05:33:09 24° 267° (W) 05:36:50 437.445
XW-2C 18 Nov 05:31:22 05:34:13 20° 92° (E) 05:37:04 145.795 - 145.815
NUDT-PHONESAT 18 Nov 05:38:34 05:41:01 17° 91° (E) 05:43:27 437.300
STRAND 1 18 Nov 05:43:22 05:48:03 36° 63° (ENE) 05:52:45 437.568
XW-2F 18 Nov 05:45:32 05:48:45 26° 94° (E) 05:51:56 145.980 - 146.000
HO-68 18 Nov 05:46:19 05:50:38 16° 84° (E) 05:54:54 435.675
FO-29 18 Nov 05:48:00 05:52:58 21° 46° (NE) 05:58:16 435.910
STARS 18 Nov 06:04:51 06:08:30 25° 267° (W) 06:12:10 437.465
ITAMSAT 1 18 Nov 06:05:24 06:08:50 18° 308° (NW) 06:12:15 435.822/435.867
KAITUO 1B 18 Nov 06:20:00 06:23:39 46° 99° (E) 06:27:17 145.475/437.950
PCSat 18 Nov 06:20:27 06:23:52 17° 7° (N) 06:27:17 145.827
SEEDS 18 Nov 06:22:29 06:24:30 13° 86° (E) 06:26:29 437.485
BEESAT 2 18 Nov 06:22:37 06:26:26 39° 322° (NW) 06:30:18 435.950
XW-2D 18 Nov 06:24:46 06:28:34 74° 103° (ESE) 06:32:22 145.860 - 145.880
SO-50 18 Nov 06:31:09 06:35:46 71° 44° (NE) 06:40:26 436.795
DOVE 4 18 Nov 06:38:57 06:43:34 31° 298° (WNW) 06:48:02 437.250
XW-2B 18 Nov 06:39:27 06:43:17 81° 284° (WNW) 06:47:04 145.730 - 145.750
AO-85 18 Nov 06:43:08 06:47:00 51° 319° (NW) 06:51:08 145.980
BEESAT 3 18 Nov 07:00:14 07:02:49 16° 342° (NNW) 07:05:25 437.485
LilacSat-2 18 Nov 07:02:05 07:05:43 43° 290° (WNW) 07:09:22 437.200
UWE-3 18 Nov 07:04:23 07:07:17 18° 90° (E) 07:10:09 435.000/436.395/437.385
XW-2C 18 Nov 07:04:59 07:08:35 43° 291° (WNW) 07:12:12 145.795 - 145.815
ZACube-1 18 Nov 07:05:39 07:05:56 10° 85° (E) 07:06:13 437.345
CUTE-I 18 Nov 07:08:29 07:13:53 75° 289° (WNW) 07:19:13 437.470
YUBILEINY 18 Nov 07:09:20 07:17:57 59° 288° (WNW) 07:26:41 435.215
NUDT-PHONESAT 18 Nov 07:11:33 07:15:08 49° 289° (WNW) 07:18:43 437.300
RS-15 18 Nov 07:12:04 07:17:29 15° 269° (W) 07:22:48 29.354- 29.394
CUTE 1.7 + AOD 2 18 Nov 07:18:26 07:22:41 66° 102° (ESE) 07:26:56 437.475
AO-7 18 Nov 07:19:20 07:24:35 19° 328° (NNW) 07:29:51 .
XW-2F 18 Nov 07:19:29 07:22:54 33° 293° (WNW) 07:26:19 145.980 - 146.000
STRAND 1 18 Nov 07:22:21 07:27:12 41° 262° (W) 07:32:05 437.568
FO-29 18 Nov 07:30:07 07:36:44 71° 69° (ENE) 07:44:11 435.910
HO-68 18 Nov 07:32:27 07:39:41 72° 105° (ESE) 07:46:51 435.675
CUBEBUG 2 18 Nov 07:35:01 07:39:13 57° 100° (E) 07:43:18 437.445
UNISAT 6 18 Nov 07:36:44 07:39:53 19° 58° (ENE) 07:42:59 437.425
TIGRISAT 18 Nov 07:42:05 07:45:17 19° 59° (ENE) 07:48:27 435.000
KAITUO 1B 18 Nov 07:54:37 07:57:21 19° 298° (WNW) 08:00:06 145.475/437.950
AO-73 18 Nov 07:56:22 07:59:59 28° 94° (E) 08:03:33 145.935
SEEDS 18 Nov 07:56:30 08:00:45 83° 287° (WNW) 08:05:00 437.485
XW-2A 18 Nov 07:59:43 08:03:01 58° 101° (E) 08:06:20 145.665 - 145.685
XW-2D 18 Nov 08:00:13 08:02:15 14° 301° (WNW) 08:04:17 145.860 - 145.880
BEESAT 2 18 Nov 08:02:41 08:05:12 16° 345° (NNW) 08:07:42 435.950
PCSat 18 Nov 08:04:15 08:09:02 30° 32° (NNE) 08:13:46 145.827
PRISM 18 Nov 08:11:08 08:13:32 15° 56° (NE) 08:15:55 437.425
SO-50 18 Nov 08:12:14 08:15:50 23° 244° (WSW) 08:19:28 436.795
AAUSAT CUBESAT 2 18 Nov 08:14:57 08:19:09 73° 103° (ESE) 08:23:20 437.432
XW-2B 18 Nov 08:15:44 08:16:48 11° 304° (NW) 08:17:51 145.730 - 145.750
Oscar 11 18 Nov 08:16:59 08:20:54 32° 95° (E) 08:24:48 .
AO-85 18 Nov 08:25:27 08:28:21 18° 343° (NNW) 08:31:24 145.980
ZACube-1 18 Nov 08:38:47 08:42:57 82° 101° (E) 08:47:06 437.345
BEESAT 3 18 Nov 08:39:55 08:41:52 13° 6° (N) 08:43:50 437.485
UWE-3 18 Nov 08:40:01 08:44:07 56° 289° (WNW) 08:48:10 435.000/436.395/437.385
CUTE-I 18 Nov 08:49:50 08:53:05 17° 309° (NW) 08:56:20 437.470
CUTE 1.7 + AOD 2 18 Nov 08:55:09 08:58:05 18° 301° (WNW) 09:01:02 437.475
YUBILEINY 18 Nov 09:11:29 09:17:06 18° 315° (NW) 09:22:47 435.215
UNISAT 6 18 Nov 09:11:32 09:16:08 73° 258° (WSW) 09:20:38 437.425
CUBEBUG 2 18 Nov 09:12:24 09:15:28 20° 300° (WNW) 09:18:29 437.445
AO-7 18 Nov 09:13:00 09:14:07 10° 355° (N) 09:15:13 .
FO-29 18 Nov 09:16:47 09:22:29 29° 272° (W) 09:28:46 435.910
TIGRISAT 18 Nov 09:16:58 09:21:33 70° 257° (WSW) 09:26:03 435.000
HO-68 18 Nov 09:20:43 09:26:57 33° 307° (NW) 09:33:09 435.675
DELFI C3 18 Nov 09:20:59 09:24:38 33° 96° (E) 09:28:16 145.870
AO-73 18 Nov 09:32:30 09:36:17 35° 293° (WNW) 09:40:02 145.935
XW-2A 18 Nov 09:33:36 09:35:21 14° 299° (WNW) 09:37:04 145.665 - 145.685
SEEDS 18 Nov 09:33:47 09:35:46 13° 305° (NW) 09:37:46 437.485
Max Valier Satellite 18 Nov 09:39:19 09:42:43 35° 97° (E) 09:46:05 145.860
BEESAT 2 18 Nov 09:42:16 09:44:28 14° 9° (N) 09:46:39 435.950
PRISM 18 Nov 09:44:06 09:48:14 82° 258° (WSW) 09:52:25 437.425
DUCHIFAT 1 18 Nov 09:45:02 09:47:12 14° 56° (NE) 09:49:23 145.980
EO-88 18 Nov 09:46:28 09:49:45 30° 96° (E) 09:53:00 145.990 - 145.960
EO-79 18 Nov 09:46:53 09:49:43 18° 58° (ENE) 09:52:33 145.935-145.965
PCSat 18 Nov 09:47:33 09:53:01 81° 235° (SW) 09:58:26 145.827
AAUSAT CUBESAT 2 18 Nov 09:51:27 09:54:07 17° 302° (WNW) 09:56:46 437.432
NANOSAT C BR1 18 Nov 09:52:38 09:55:29 18° 58° (ENE) 09:58:20 145.865
Oscar 11 18 Nov 09:53:09 09:57:02 33° 294° (WNW) 10:00:56 .
POLYITAN 1 18 Nov 10:00:33 10:03:51 22° 61° (ENE) 10:07:10 437.675
AO-85 18 Nov 10:07:42 10:10:21 16° 8° (N) 10:13:05 145.980
ZACube-1 18 Nov 10:16:22 10:18:41 15° 303° (WNW) 10:20:59 437.345
BEESAT 3 18 Nov 10:17:22 10:20:43 25° 29° (NNE) 10:24:01 437.485
AIST 2D 18 Nov 10:21:38 10:25:06 77° 75° (ENE) 10:28:35 435.315
QB50P2 18 Nov 10:22:46 10:26:41 37° 67° (ENE) 10:30:37 145.880/145.840
LO-87 18 Nov 10:24:05 10:25:38 12° 88° (E) 10:27:12 145.935 - 145.965
ESTCUBE 1 18 Nov 10:32:06 10:34:36 15° 87° (E) 10:37:07 437.505/2401.250
Gurwin Techsat 1B 18 Nov 10:45:43 10:47:22 11° 46° (NE) 10:49:00 435.225
Oscar 19 18 Nov 10:48:19 10:50:58 14° 50° (NE) 10:53:39 437.125/150
BUGSAT 1 18 Nov 10:51:28 10:54:13 17° 58° (ENE) 10:56:58 437.445
UNISAT 6 18 Nov 10:52:53 10:53:37 10° 276° (W) 10:54:22 437.425
DELFI C3 18 Nov 10:55:50 10:59:20 29° 295° (WNW) 11:02:48 145.870
AO-7 18 Nov 10:59:33 11:03:23 14° 23° (NNE) 11:07:14 .
HO-68 18 Nov 11:10:46 11:12:35 11° 330° (NNW) 11:14:24 435.675
Max Valier Satellite 18 Nov 11:13:26 11:16:24 23° 295° (WNW) 11:19:21 145.860
DUCHIFAT 1 18 Nov 11:18:01 11:22:15 88° 79° (E) 11:26:30 145.980
BEESAT 2 18 Nov 11:19:50 11:23:25 29° 32° (NNE) 11:26:58 435.950
EO-88 18 Nov 11:20:14 11:23:19 26° 294° (WNW) 11:26:25 145.990 - 145.960
EO-79 18 Nov 11:20:46 11:25:01 70° 257° (WSW) 11:29:16 145.935-145.965
PRISM 18 Nov 11:23:32 11:24:13 10° 275° (W) 11:24:54 437.425
NANOSAT C BR1 18 Nov 11:26:32 11:30:44 68° 257° (WSW) 11:34:59 145.865
PCSat 18 Nov 11:32:20 11:35:36 16° 255° (WSW) 11:38:50 145.827
POLYITAN 1 18 Nov 11:35:13 11:39:21 51° 260° (W) 11:43:31 437.675
AO-85 18 Nov 11:48:06 11:52:03 30° 32° (NNE) 11:56:15 145.980
BEESAT 3 18 Nov 11:54:40 11:58:39 74° 231° (SW) 12:02:33 437.485
LO-87 18 Nov 11:55:55 11:59:28 64° 287° (WNW) 12:02:58 145.935 - 145.965
QB50P2 18 Nov 11:58:52 12:02:33 28° 265° (W) 12:06:16 145.880/145.840
ESTCUBE 1 18 Nov 12:07:27 12:12:00 82° 288° (WNW) 12:16:33 437.505/2401.250
Gurwin Techsat 1B 18 Nov 12:21:02 12:26:09 49° 66° (ENE) 12:31:16 435.225
Oscar 19 18 Nov 12:24:20 12:29:25 68° 71° (ENE) 12:34:32 437.125/150
BUGSAT 1 18 Nov 12:24:55 12:29:07 70° 256° (WSW) 12:33:18 437.445
M-CUBED/EXP-1 PRIME 18 Nov 12:30:09 12:33:13 26° 56° (NE) 12:36:29 437.505
SPROUT 18 Nov 12:32:44 12:36:55 52° 100° (E) 12:41:04 437.525
ITAMSAT 1 18 Nov 12:35:05 12:35:56 10° 44° (NE) 12:36:47 435.822/435.867
VELOX 1 18 Nov 12:43:49 12:48:07 44° 99° (E) 12:52:23 145.980
AO-7 18 Nov 12:46:35 12:53:45 34° 48° (NE) 13:00:57 .
UKube-1 18 Nov 12:56:44 12:57:43 11° 86° (E) 12:58:41 .
DUCHIFAT 1 18 Nov 12:56:51 12:58:32 12° 274° (W) 13:00:14 145.980
BEESAT 2 18 Nov 12:57:25 13:01:25 59° 234° (SW) 13:05:22 435.950
50 SAT 18 Nov 13:12:36 13:15:08 21° 94° (E) 13:17:38 437.505
AO-85 18 Nov 13:28:17 13:32:49 71° 232° (SW) 13:37:43 145.980
BEESAT 3 18 Nov 13:34:30 13:35:27 11° 250° (WSW) 13:36:25 437.485
DX 1 18 Nov 13:40:37 13:44:48 41° 98° (E) 13:48:57 434.975-435.025
ESTCUBE 1 18 Nov 13:45:42 13:48:07 14° 306° (NW) 13:50:33 437.505/2401.250
Gurwin Techsat 1B 18 Nov 14:01:39 14:06:19 30° 266° (W) 14:11:01 435.225
M-CUBED/EXP-1 PRIME 18 Nov 14:04:14 14:07:30 34° 257° (WSW) 14:11:03 437.505
Oscar 19 18 Nov 14:05:25 14:09:14 21° 270° (W) 14:13:05 437.125/150
SPROUT 18 Nov 14:09:13 14:12:31 22° 299° (WNW) 14:15:48 437.525
ITAMSAT 1 18 Nov 14:09:14 14:14:11 45° 65° (ENE) 14:19:10 435.822/435.867
ITUPSAT 1 18 Nov 14:14:04 14:15:13 11° 84° (E) 14:16:22 437.325
VELOX 1 18 Nov 14:20:36 14:24:23 27° 298° (WNW) 14:28:08 145.980
O/OREOS (USA 219) 18 Nov 14:25:16 14:29:49 63° 114° (ESE) 14:34:24 437.305
UKube-1 18 Nov 14:30:06 14:34:28 79° 104° (ESE) 14:38:48 .
DOVE 4 18 Nov 14:35:48 14:39:06 18° 54° (NE) 14:42:29 437.250
AO-7 18 Nov 14:37:36 14:45:54 80° 251° (WSW) 14:54:17 .
50 SAT 18 Nov 14:44:24 14:47:18 30° 293° (WNW) 14:50:10 437.505
MOZHAYETS 4 18 Nov 14:57:18 15:01:28 33° 96° (E) 15:05:35
CUBESAT XI-V 18 Nov 15:01:43 15:02:57 11° 84° (E) 15:04:12 437.345
AO-85 18 Nov 15:10:22 15:12:35 13° 249° (WSW) 15:14:52 145.980
YUBILEINY 18 Nov 15:15:46 15:23:17 29° 57° (ENE) 15:30:44 435.215
DX 1 18 Nov 15:17:04 15:20:50 28° 298° (WNW) 15:24:36 434.975-435.025
CUTE-I 18 Nov 15:20:08 15:22:20 13° 47° (NE) 15:24:32 437.470
XW-2D 18 Nov 15:40:25 15:40:58 10° 55° (NE) 15:41:31 145.860 - 145.880
BEESAT 18 Nov 15:41:49 15:46:34 63° 102° (ESE) 15:51:17 436.000
ITAMSAT 1 18 Nov 15:49:06 15:53:48 33° 265° (W) 15:58:32 435.822/435.867
ITUPSAT 1 18 Nov 15:49:08 15:53:56 72° 104° (ESE) 15:58:40 437.325
XW-2B 18 Nov 15:53:41 15:55:32 13° 58° (ENE) 15:57:22 145.730 - 145.750
O/OREOS (USA 219) 18 Nov 16:05:50 16:09:38 25° 315° (NW) 16:13:27 437.305
UKube-1 18 Nov 16:07:13 16:09:58 17° 304° (NW) 16:12:41 .
DOVE 4 18 Nov 16:10:57 16:15:59 84° 74° (ENE) 16:21:17 437.250
LilacSat-2 18 Nov 16:15:25 16:18:22 22° 63° (ENE) 16:21:21 437.200
XW-2C 18 Nov 16:17:46 16:20:41 22° 63° (ENE) 16:23:36 145.795 - 145.815
HO-68 18 Nov 16:20:55 16:26:36 26° 49° (NE) 16:32:18 435.675
NUDT-PHONESAT 18 Nov 16:22:48 16:25:18 18° 62° (ENE) 16:27:50 437.300
XW-2F 18 Nov 16:31:22 16:34:32 27° 66° (ENE) 16:37:44 145.980 - 146.000
AO-7 18 Nov 16:34:06 16:40:01 21° 273° (W) 16:45:59 .
MOZHAYETS 4 18 Nov 16:34:28 16:38:38 36° 295° (WNW) 16:42:48
CUBESAT XI-V 18 Nov 16:36:28 16:41:10 74° 104° (ESE) 16:45:51 437.345
CUTE 1.7 + AOD 2 18 Nov 16:42:46 16:44:56 14° 56° (NE) 16:47:07 437.475
NO-84 18 Nov 16:46:51 16:50:24 34° 140° (SE) 16:54:09 435.350 FM
CUTE-I 18 Nov 16:56:04 17:01:18 54° 67° (ENE) 17:06:33 437.470
CUBEBUG 2 18 Nov 17:03:33 17:06:14 16° 57° (ENE) 17:08:51 437.445
KAITUO 1B 18 Nov 17:04:43 17:08:16 47° 71° (ENE) 17:11:51 145.475/437.950
XW-2D 18 Nov 17:10:44 17:14:27 77° 74° (ENE) 17:18:14 145.860 - 145.880
YUBILEINY 18 Nov 17:12:23 17:21:17 85° 263° (W) 17:30:08 435.215
KKS-1 18 Nov 17:13:40 17:17:59 43° 99° (E) 17:22:14 437.445
SEEDS 18 Nov 17:18:57 17:21:53 19° 60° (ENE) 17:24:50 437.485
RS-15 18 Nov 17:19:31 17:26:29 17° 93° (E) 17:33:24 29.354- 29.394
BEESAT 18 Nov 17:20:17 17:23:57 23° 302° (WNW) 17:27:36 436.000
XW-2B 18 Nov 17:25:26 17:29:10 77° 256° (WSW) 17:32:57 145.730 - 145.750
ITUPSAT 1 18 Nov 17:27:49 17:31:17 20° 303° (WNW) 17:34:45 437.325
AAUSAT CUBESAT 2 18 Nov 17:36:52 17:39:03 14° 57° (ENE) 17:41:16 437.432
STARS 18 Nov 17:47:31 17:51:42 40° 98° (E) 17:55:51 437.465
LilacSat-2 18 Nov 17:48:54 17:52:28 39° 263° (W) 17:56:02 437.200
DOVE 4 18 Nov 17:51:05 17:54:22 17° 275° (W) 17:57:46 437.250
XW-2C 18 Nov 17:51:08 17:54:40 39° 262° (W) 17:58:13 145.795 - 145.815
NUDT-PHONESAT 18 Nov 17:55:17 17:58:50 49° 261° (W) 18:02:25 437.300
ZACube-1 18 Nov 18:04:56 18:07:51 18° 59° (ENE) 18:10:45 437.345
XW-2F 18 Nov 18:05:17 18:08:35 30° 264° (W) 18:11:56 145.980 - 146.000
UWE-3 18 Nov 18:05:56 18:09:49 30° 65° (ENE) 18:13:37 435.000/436.395/437.385
HO-68 18 Nov 18:06:17 18:13:31 88° 67° (ENE) 18:20:47 435.675
CUBESAT XI-V 18 Nov 18:14:45 18:18:02 19° 302° (WNW) 18:21:20 437.345
CUTE 1.7 + AOD 2 18 Nov 18:15:57 18:20:09 90° 50° (NE) 18:24:24 437.475
NO-84 18 Nov 18:23:33 18:27:33 76° 340° (NNW) 18:31:47 435.350 FM
XW-2A 18 Nov 18:35:34 18:38:46 45° 71° (ENE) 18:41:58 145.665 - 145.685
CUTE-I 18 Nov 18:37:03 18:41:38 28° 267° (W) 18:46:16 437.470
CUBEBUG 2 18 Nov 18:37:38 18:42:15 89° 240° (WSW) 18:46:46 437.445
FO-29 18 Nov 18:37:49 18:38:41 10° 73° (ENE) 18:39:33 435.910
KAITUO 1B 18 Nov 18:40:01 18:42:31 17° 269° (W) 18:45:02 145.475/437.950
XW-2D 18 Nov 18:47:54 18:49:10 11° 273° (W) 18:50:24 145.860 - 145.880
KKS-1 18 Nov 18:50:33 18:54:22 28° 298° (WNW) 18:58:08 437.445
SEEDS 18 Nov 18:53:03 18:57:10 61° 259° (W) 19:01:21 437.485
AO-73 18 Nov 18:56:35 19:00:40 43° 69° (ENE) 19:04:41 145.935
AAUSAT CUBESAT 2 18 Nov 19:09:47 19:13:55 86° 259° (W) 19:18:06 437.432
YUBILEINY 18 Nov 19:10:23 19:16:50 23° 285° (WNW) 19:23:17 435.215
Oscar 11 18 Nov 19:16:39 19:20:47 48° 69° (ENE) 19:24:56 .
STARS 18 Nov 19:24:07 19:27:55 29° 298° (WNW) 19:31:41 437.465
RS-15 18 Nov 19:24:18 19:36:15 60° 118° (ESE) 19:48:04 29.354- 29.394
STRAND 1 18 Nov 19:26:45 19:31:42 46° 99° (E) 19:36:37 437.568
ZACube-1 18 Nov 19:39:24 19:43:44 67° 258° (WSW) 19:47:58 437.345
UWE-3 18 Nov 19:42:03 19:46:12 37° 263° (W) 19:50:17 435.000/436.395/437.385
